Location: Gazon
(48.1318°N, 1.2708°W)
Time: 02:04:56
(UTC+00:00)

Cosmos 1842 - Pass Details

Date: 18 September 2020
Orbit: 522 x 536 km, 82.5° (Epoch: 29 October)

Event Time Altitude Azimuth Distance (km) Brightness Sun altitude
Rises 19:01:08 0° 348° (NNW) 2,664 7.2 -9.2°
Reaches altitude 10° 19:03:17 10° 345° (NNW) 1,770 6.3 -9.5°
Maximum altitude 19:07:09 67° 264° (W) 572 3.6 -10.2°
Drops below altitude 10° 19:10:58 10° 181° (S) 1,757 5.8 -10.8°
Sets 19:13:06 0° 179° (S) 2,642 6.6 -11.1°
